SCP
0 0 0 0 0 0 0 0 0 0 0 0 0 0 0 0 0 0 0 0 0 0 1 1 1 1 1 1 1 1 1 1 1 1 1 1 1 1
0 0 0 0 0 0 0 0 0 0 0 0 0 0 0 0 0 0 0 0 0 0 0 0 0 1 1 1 1 1 1 1 1 1 1 1 1 1
0 0 0 0 0 0 0 0 0 0 0 0 0 0 0 0 0 0 0 0 1 0 0 0 0 0 0 0 0 0 0 0 0 0 1 1 1 1
0 0 0 0 0 0 0 0 0 0 0 0 0 0 0 1 1 1 0 1 1 0 0 0 0 0 0 0 0 0 0 0 0 0 0 1 1 1
0 0 0 0 0 0 0 0 0 0 0 0 0 0 0 0 1 1 1 1 1 0 0 0 0 0 0 0 0 0 0 0 0 0 0 0 1 1
0 0 0 0 0 0 0 0 0 0 0 0 0 0 0 0 1 1 1 1 1 1 0 0 0 0 0 0 0 0 0 0 0 0 0 0 0 0
0 0 0 0 0 0 0 0 0 0 0 0 0 0 0 0 0 0 1 1 1 1 1 0 0 0 0 0 0 0 0 0 0 0 0 0 0 0
0 0 0 0 0 0 0 0 0 0 0 0 0 0 0 0 0 0 0 0 0 1 1 1 0 0 0 0 0 0 0 0 0 0 0 0 0 0
0 0 0 0 0 0 0 0 0 0 0 0 0 0 0 0 0 0 0 0 0 0 1 1 1 0 1 0 0 0 0 0 0 0 0 0 0 0
0 0 0 0 0 0 0 0 0 0 0 0 0 0 0 0 0 0 0 0 0 0 0 0 0 0 1 1 0 0 0 0 0 0 0 0 0 0
0 0 0 0 0 0 0 0 0 0 0 0 0 0 0 0 0 0 0 0 0 0 0 0 0 0 0 0 0 0 0 0 0 0 0 0 0 0
0 0 0 0 0 0 0 0 0 0 0 0 0 0 0 0 0 0 0 0 0 0 0 0 0 0 0 0 0 0 0 0 0 0 0 0 0 0
0 0 0 0 0 0 0 0 0 0 0 0 0 0 0 0 0 0 0 0 0 0 0 0 0 0 0 0 0 0 0 0 0 0 0 0 0 0
0 0 0 0 0 0 0 0 0 0 0 0 0 0 0 0 0 0 0 0 0 0 0 0 0 0 0 0 0 0 0 0 0 0 0 0 0 0
0 0 0 0 0 0 0 0 0 0 0 0 0 0 0 0 0 0 0 0 0 0 0 0 0 0 0 0 0 0 0 0 0 0 0 0 0 0
0 0 0 0 0 0 0 0 0 0 0 0 0 0 0 0 0 0 0 0 0 0 0 0 0 0 0 0 0 0 0 0 0 0 0 0 0 0
0 0 0 0 0 0 0 0 0 0 0 0 0 0 0 0 0 0 0 0 0 0 0 0 0 0 0 0 0 0 0 0 0 0 0 0 0 0
0 0 0 0 0 0 0 0 0 0 0 0 0 0 0 0 0 0 0 0 0 0 0 0 0 0 0 0 0 0 0 0 0 0 0 0 0 0
0 0 0 0 0 0 0 0 0 0 0 0 0 0 0 0 0 0 0 0 0 0 0 0 0 0 0 0 0 0 0 0 0 0 0 0 0 0
0 0 0 0 0 0 0 0 0 0 0 0 0 0 0 0 0 0 0 0 0 0 0 0 0 0 0 0 0 0 0 0 0 0 0 0 0 0
0 0 0 0 0 0 0 0 0 0 0 0 0 0 0 0 0 0 0 0 0 0 0 0 0 0 0 0 0 0 0 0 0 0 0 0 0 0
0 0 0 0 0 0 0 0 0 0 0 0 0 0 0 0 0 0 0 0 0 0 0 0 0 0 0 0 0 0 0 0 0 0 0 0 0 0
0 0 0 0 0 0 0 0 0 0 0 0 0 0 0 0 0 0 0 0 0 0 0 0 0 0 0 0 0 0 0 0 0 0 0 0 0 0
Wind_Speed
2 2 2 2 2 2 2 2 2 2 2 2 1 1 1 2 4 4 4 7 9 9 10 10 10 10 10 11 11 11 10 10 10 10 10 10 10 10
1 2 2 1 1 1 2 2 2 2 2 1 1 1 1 2 4 4 5 7 9 9 10 10 10 10 10 10 10 10 9 9 9 10 10 10 9 9
1 1 2 1 1 1 2 2 2 2 2 2 1 1 1 2 2 3 3 4 4 8 9 9 9 10 10 11 10 10 9 9 9 9 10 10 10 10
1 1 2 1 2 1 1 2 2 2 2 3 1 1 2 3 2 3 3 3 3 6 8 8 9 9 10 10 10 10 10 10 9 9 10 10 11 11
1 1 2 2 2 1 2 2 2 2 2 2 2 1 1 1 2 2 2 2 3 4 7 8 8 9 9 9 10 10 10 10 10 10 10 10 10 11
1 1 1 2 2 2 2 2 2 2 2 2 2 1 1 1 1 2 2 2 2 2 3 4 6 8 9 9 9 10 10 10 10 10 10 10 10 11
2 1 1 1 2 2 2 2 2 2 2 2 2 1 1 2 2 2 2 2 2 2 2 3 3 4 5 7 9 10 11 11 10 10 10 10 10 10
2 2 2 2 2 2 2 2 3 3 3 2 2 3 3 3 2 2 2 2 2 2 2 2 3 3 4 4 7 9 11 11 11 11 10 10 10 10
1 2 2 2 3 1 2 2 2 3 4 4 4 4 4 4 3 3 3 3 3 2 2 2 2 3 3 4 8 10 11 11 11 11 11 11 11 11
2 1 2 2 2 2 1 2 2 2 3 3 4 5 4 4 4 4 3 2 1 1 2 3 2 2 2 3 7 9 10 10 11 11 11 11 11 11
2 2 2 2 4 3 1 2 3 3 3 3 4 5 5 6 4 3 3 3 2 2 2 2 2 1 2 3 4 7 9 9 10 11 11 10 10 9
3 3 3 3 4 3 1 2 3 3 3 3 2 2 2 3 6 5 4 4 2 3 3 3 2 2 1 1 2 3 4 7 9 10 10 10 10 6
2 2 3 6 6 5 3 1 3 3 2 2 2 2 1 1 2 3 4 4 4 3 3 4 3 3 2 1 1 2 3 3 4 5 8 10 10 9
2 2 3 6 6 6 4 3 4 3 1 1 1 1 1 1 1 2 3 3 3 4 4 4 3 4 4 2 2 2 3 3 4 4 4 7 8 10
1 2 4 6 6 4 5 6 4 2 1 1 2 2 1 2 1 1 1 2 2 2 3 4 4 3 3 4 3 3 2 3 5 5 5 6 5 5
2 3 5 6 4 4 5 4 3 2 1 1 2 2 1 1 1 1 1 1 1 1 2 4 5 5 4 4 4 4 4 4 4 5 5 5 5 6
2 3 3 4 5 4 4 4 3 3 3 2 2 2 2 2 1 1 1 1 2 2 2 1 3 3 4 4 4 5 5 5 5 5 5 5 6 7
4 3 3 3 3 4 4 4 3 3 3 3 2 2 2 2 2 2 1 2 2 3 3 2 2 1 2 4 7 6 5 5 4 5 5 5 6 6
4 3 3 3 3 3 3 3 3 4 3 3 3 3 3 3 2 2 2 2 3 3 3 3 3 4 4 5 5 8 6 4 4 5 5 6 6 6
4 3 3 3 3 4 4 3 3 4 3 3 3 3 3 3 3 3 3 3 4 4 4 3 4 6 6 5 4 4 8 7 6 6 5 4 3 2
3 3 3 3 3 4 4 3 4 3 4 4 4 4 4 4 4 4 4 5 5 4 5 5 6 7 4 2 3 4 4 9 9 6 6 4 3 3
3 3 3 4 4 4 4 4 4 4 5 4 4 4 4 4 5 6 5 5 5 5 6 5 3 3 4 6 7 6 5 4 6 9 8 8 6 7
3 3 3 3 4 4 4 4 5 4 4 5 5 5 5 5 5 5 6 6 6 6 6 5 3 4 5 6 7 6 7 6 4 4 6 9 11 9
Wind_Direction
221 216 216 228 214 208 193 181 177 212 249 248 253 230 193 194 200 197 204 205 206 207 205 205 204 202 203 205 204 206 209 210 210 206 204 206 207 209
223 222 227 223 220 207 198 196 193 194 230 254 248 270 213 218 205 199 209 204 207 209 209 204 203 202 201 200 199 200 203 207 209 208 206 207 208 211
249 228 242 225 212 209 189 184 196 193 225 262 254 251 223 222 214 205 207 204 206 207 206 204 203 203 203 202 199 198 200 203 208 209 208 207 207 211
265 244 248 233 224 212 191 193 196 198 207 241 256 235 232 215 207 205 208 203 201 200 198 198 200 202 203 202 200 199 200 202 205 208 209 209 210 211
251 238 244 221 230 219 204 206 210 209 205 218 244 237 240 216 196 204 197 198 203 200 198 201 202 202 203 203 204 204 203 203 204 205 207 209 211 210
316 265 245 227 227 217 212 213 207 205 207 215 226 233 239 232 191 200 211 203 204 195 196 198 200 201 204 205 207 207 206 205 203 203 205 207 207 207
346 330 295 289 250 221 213 208 201 201 198 207 217 220 226 208 205 197 212 217 224 196 189 200 195 200 203 208 212 211 207 205 203 203 205 206 205 205
335 334 327 334 325 328 301 242 213 203 203 203 215 218 229 218 205 196 195 200 237 194 186 215 190 203 205 205 209 211 210 205 203 204 204 204 204 204
335 337 342 346 350 324 306 306 280 253 224 206 214 222 216 209 193 202 206 206 218 196 173 218 203 217 210 208 205 209 210 208 205 205 205 205 205 204
344 323 319 322 330 331 320 315 304 287 259 237 225 230 227 214 204 206 203 193 209 206 180 206 202 217 213 211 210 210 208 207 206 206 206 205 205 206
339 338 326 312 323 338 334 315 312 308 290 262 254 247 241 230 205 178 181 193 224 220 193 194 195 201 221 223 216 210 208 207 206 204 202 199 198 199
334 335 336 332 327 339 330 304 305 303 312 317 313 303 263 233 212 203 197 199 202 218 197 181 180 169 220 233 216 208 209 211 208 206 202 198 192 192
324 326 326 336 340 339 333 287 283 296 299 296 298 300 287 243 224 215 209 204 207 223 188 172 177 178 186 211 229 212 203 203 204 208 203 198 193 191
294 306 318 337 343 345 343 329 321 323 313 313 309 296 286 274 251 231 222 222 223 224 193 178 187 186 181 194 220 211 208 206 201 204 201 195 200 202
291 328 344 353 355 358 0 356 355 357 343 330 310 292 276 274 277 262 242 219 221 224 200 198 197 192 194 204 203 197 207 214 203 203 201 201 202 198
6 5 12 18 19 3 359 1 1 349 332 310 305 298 299 287 271 255 243 228 233 247 215 204 202 198 210 216 210 215 207 209 202 203 203 207 205 203
41 32 26 19 17 11 5 358 354 358 354 335 323 322 319 309 298 288 255 241 234 244 248 215 205 211 217 208 220 226 219 219 212 201 201 215 218 211
71 46 28 18 11 2 357 352 352 351 342 335 328 319 315 311 304 294 270 257 256 252 245 225 194 201 224 238 220 226 221 221 212 200 199 211 225 216
67 46 27 11 360 353 350 345 341 336 334 336 334 327 320 313 305 295 281 268 262 257 250 225 210 212 236 253 238 212 213 212 199 202 208 211 221 216
48 36 19 6 358 352 349 346 340 343 347 344 339 333 326 318 308 296 284 275 274 268 257 235 224 223 230 243 243 228 211 208 206 213 210 209 227 226
30 22 14 5 358 351 345 344 343 344 346 344 339 334 328 321 310 303 293 283 275 270 266 257 244 233 233 223 241 243 228 215 209 206 193 188 198 200
26 19 13 9 4 357 353 354 354 356 354 349 339 331 324 315 306 302 298 293 282 272 269 271 261 220 214 229 243 245 240 224 222 221 209 193 186 199
16 13 8 6 4 359 359 1 1 355 349 342 336 330 326 319 311 303 297 292 290 286 282 278 263 238 236 237 245 247 241 230 212 210 227 227 226 228